Data supplied by UK-AIR on 5/4/2008
All Data GMT hour ending 
Status: R =Ratified P=Provisional,P*=As supplied
,,London Sutton,,,,,,,,,,,,,,,,,,,,,,,
Date,time,"Nitric oxide",status,unit,"Nitrogen dioxide",status,unit,"Nitrogen oxides as nitrogen dioxide",status,unit,"Ozone",status,unit
 
01-01-1997,01:00,1,R,ugm-3,19,R,ugm-3,21,R,ugm-3,54,R,ugm-3
01-01-1997,02:00,1,R,ugm-3,17,R,ugm-3,19,R,ugm-3,54,R,ugm-3
01-01-1997,03:00,1,R,ugm-3,13,R,ugm-3,15,R,ugm-3,62,R,ugm-3
01-01-1997,04:00,0,R,ugm-3,13,R,ugm-3,13,R,ugm-3,62,R,ugm-3
01-01-1997,05:00,0,R,ugm-3,13,R,ugm-3,13,R,ugm-3,60,R,ugm-3
01-01-1997,06:00,0,R,ugm-3,15,R,ugm-3,15,R,ugm-3,60,R,ugm-3
01-01-1997,07:00,0,R,ugm-3,19,R,ugm-3,19,R,ugm-3,52,R,ugm-3
01-01-1997,08:00,0,R,ugm-3,21,R,ugm-3,21,R,ugm-3,50,R,ugm-3
01-01-1997,09:00,0,R,ugm-3,15,R,ugm-3,15,R,ugm-3,60,R,ugm-3
01-01-1997,10:00,1,R,ugm-3,13,R,ugm-3,15,R,ugm-3,60,R,ugm-3
01-01-1997,11:00,3,R,ugm-3,13,R,ugm-3,17,R,ugm-3,62,R,ugm-3
01-01-1997,12:00,3,R,ugm-3,17,R,ugm-3,21,R,ugm-3,60,R,ugm-3
01-01-1997,13:00,3,R,ugm-3,17,R,ugm-3,21,R,ugm-3,58,R,ugm-3
01-01-1997,14:00,3,R,ugm-3,21,R,ugm-3,25,R,ugm-3,54,R,ugm-3
01-01-1997,15:00,4,R,ugm-3,25,R,ugm-3,31,R,ugm-3,50,R,ugm-3
01-01-1997,16:00,3,R,ugm-3,27,R,ugm-3,31,R,ugm-3,48,R,ugm-3
01-01-1997,17:00,1,R,ugm-3,31,R,ugm-3,32,R,ugm-3,44,R,ugm-3
01-01-1997,18:00,3,R,ugm-3,32,R,ugm-3,36,R,ugm-3,40,R,ugm-3
01-01-1997,19:00,3,R,ugm-3,38,R,ugm-3,42,R,ugm-3,36,R,ugm-3
01-01-1997,20:00,1,R,ugm-3,36,R,ugm-3,38,R,ugm-3,36,R,ugm-3
01-01-1997,21:00,1,R,ugm-3,31,R,ugm-3,32,R,ugm-3,42,R,ugm-3
01-01-1997,22:00,1,R,ugm-3,34,R,ugm-3,36,R,ugm-3,36,R,ugm-3
01-01-1997,23:00,1,R,ugm-3,40,R,ugm-3,42,R,ugm-3,32,R,ugm-3
01-01-1997,24:00,3,R,ugm-3,50,R,ugm-3,53,R,ugm-3,22,R,ugm-3
02-01-1997,01:00,4,R,ugm-3,50,R,ugm-3,55,R,ugm-3,14,R,ugm-3
02-01-1997,02:00,3,R,ugm-3,44,R,ugm-3,48,R,ugm-3,22,R,ugm-3
02-01-1997,03:00,1,R,ugm-3,25,R,ugm-3,27,R,ugm-3,40,R,ugm-3
02-01-1997,04:00,0,R,ugm-3,29,R,ugm-3,29,R,ugm-3,36,R,ugm-3
02-01-1997,05:00,1,R,ugm-3,23,R,ugm-3,25,R,ugm-3,40,R,ugm-3
02-01-1997,06:00,3,R,ugm-3,44,R,ugm-3,48,R,ugm-3,18,R,ugm-3
02-01-1997,07:00,14,R,ugm-3,55,R,ugm-3,76,R,ugm-3,2,R,ugm-3
02-01-1997,08:00,49,R,ugm-3,55,R,ugm-3,130,R,ugm-3,0,R,ugm-3
02-01-1997,09:00,96,R,ugm-3,46,R,ugm-3,193,R,ugm-3,0,R,ugm-3
02-01-1997,10:00,106,R,ugm-3,50,R,ugm-3,212,R,ugm-3,2,R,ugm-3
02-01-1997,11:00,36,R,ugm-3,48,R,ugm-3,103,R,ugm-3,16,R,ugm-3
02-01-1997,12:00,28,R,ugm-3,46,R,ugm-3,88,R,ugm-3,16,R,ugm-3
02-01-1997,13:00,,,,,,,,,,,,
02-01-1997,14:00,16,R,ugm-3,34,R,ugm-3,59,R,ugm-3,24,R,ugm-3
02-01-1997,15:00,15,R,ugm-3,38,R,ugm-3,61,R,ugm-3,22,R,ugm-3
02-01-1997,16:00,26,R,ugm-3,50,R,ugm-3,90,R,ugm-3,8,R,ugm-3
02-01-1997,17:00,29,R,ugm-3,53,R,ugm-3,97,R,ugm-3,2,R,ugm-3
02-01-1997,18:00,21,R,ugm-3,52,R,ugm-3,84,R,ugm-3,6,R,ugm-3
02-01-1997,19:00,26,R,ugm-3,53,R,ugm-3,94,R,ugm-3,4,R,ugm-3
02-01-1997,20:00,45,R,ugm-3,53,R,ugm-3,122,R,ugm-3,0,R,ugm-3
02-01-1997,21:00,39,R,ugm-3,53,R,ugm-3,113,R,ugm-3,0,R,ugm-3
02-01-1997,22:00,33,R,ugm-3,53,R,ugm-3,103,R,ugm-3,0,R,ugm-3
02-01-1997,23:00,23,R,ugm-3,53,R,ugm-3,88,R,ugm-3,2,R,ugm-3
02-01-1997,24:00,6,R,ugm-3,48,R,ugm-3,57,R,ugm-3,6,R,ugm-3
03-01-1997,01:00,4,R,ugm-3,44,R,ugm-3,50,R,ugm-3,10,R,ugm-3
03-01-1997,02:00,3,R,ugm-3,40,R,ugm-3,44,R,ugm-3,12,R,ugm-3
03-01-1997,03:00,1,R,ugm-3,34,R,ugm-3,36,R,ugm-3,18,R,ugm-3
03-01-1997,04:00,3,R,ugm-3,31,R,ugm-3,34,R,ugm-3,24,R,ugm-3
03-01-1997,05:00,1,R,ugm-3,27,R,ugm-3,29,R,ugm-3,30,R,ugm-3
03-01-1997,06:00,1,R,ugm-3,27,R,ugm-3,29,R,ugm-3,30,R,ugm-3
03-01-1997,07:00,3,R,ugm-3,25,R,ugm-3,29,R,ugm-3,28,R,ugm-3
03-01-1997,08:00,8,R,ugm-3,36,R,ugm-3,48,R,ugm-3,16,R,ugm-3
03-01-1997,09:00,10,R,ugm-3,42,R,ugm-3,57,R,ugm-3,12,R,ugm-3
03-01-1997,10:00,9,R,ugm-3,32,R,ugm-3,46,R,ugm-3,18,R,ugm-3
03-01-1997,11:00,11,R,ugm-3,38,R,ugm-3,55,R,ugm-3,16,R,ugm-3
03-01-1997,12:00,15,R,ugm-3,42,R,ugm-3,65,R,ugm-3,12,R,ugm-3
03-01-1997,13:00,13,R,ugm-3,42,R,ugm-3,61,R,ugm-3,14,R,ugm-3
03-01-1997,14:00,15,R,ugm-3,38,R,ugm-3,61,R,ugm-3,14,R,ugm-3
03-01-1997,15:00,11,R,ugm-3,38,R,ugm-3,55,R,ugm-3,16,R,ugm-3
03-01-1997,16:00,20,R,ugm-3,48,R,ugm-3,78,R,ugm-3,4,R,ugm-3
03-01-1997,17:00,16,R,ugm-3,48,R,ugm-3,73,R,ugm-3,4,R,ugm-3
03-01-1997,18:00,16,R,ugm-3,50,R,ugm-3,74,R,ugm-3,4,R,ugm-3
03-01-1997,19:00,15,R,ugm-3,48,R,ugm-3,71,R,ugm-3,6,R,ugm-3
03-01-1997,20:00,6,R,ugm-3,42,R,ugm-3,52,R,ugm-3,12,R,ugm-3
03-01-1997,21:00,6,R,ugm-3,42,R,ugm-3,52,R,ugm-3,12,R,ugm-3
03-01-1997,22:00,5,R,ugm-3,32,R,ugm-3,40,R,ugm-3,22,R,ugm-3
03-01-1997,23:00,1,R,ugm-3,27,R,ugm-3,29,R,ugm-3,26,R,ugm-3
03-01-1997,24:00,4,R,ugm-3,25,R,ugm-3,31,R,ugm-3,26,R,ugm-3
04-01-1997,01:00,1,R,ugm-3,23,R,ugm-3,25,R,ugm-3,30,R,ugm-3
04-01-1997,02:00,1,R,ugm-3,19,R,ugm-3,21,R,ugm-3,32,R,ugm-3
04-01-1997,03:00,1,R,ugm-3,19,R,ugm-3,21,R,ugm-3,30,R,ugm-3
04-01-1997,04:00,1,R,ugm-3,15,R,ugm-3,17,R,ugm-3,34,R,ugm-3
04-01-1997,05:00,1,R,ugm-3,15,R,ugm-3,17,R,ugm-3,36,R,ugm-3
04-01-1997,06:00,1,R,ugm-3,21,R,ugm-3,23,R,ugm-3,30,R,ugm-3
04-01-1997,07:00,1,R,ugm-3,21,R,ugm-3,23,R,ugm-3,34,R,ugm-3
04-01-1997,08:00,3,R,ugm-3,25,R,ugm-3,29,R,ugm-3,28,R,ugm-3
04-01-1997,09:00,4,R,ugm-3,27,R,ugm-3,32,R,ugm-3,22,R,ugm-3
04-01-1997,10:00,5,R,ugm-3,32,R,ugm-3,40,R,ugm-3,18,R,ugm-3
04-01-1997,11:00,6,R,ugm-3,32,R,ugm-3,42,R,ugm-3,20,R,ugm-3
04-01-1997,12:00,6,R,ugm-3,36,R,ugm-3,46,R,ugm-3,20,R,ugm-3
04-01-1997,13:00,8,R,ugm-3,36,R,ugm-3,48,R,ugm-3,20,R,ugm-3
04-01-1997,14:00,6,R,ugm-3,34,R,ugm-3,44,R,ugm-3,26,R,ugm-3
04-01-1997,15:00,5,R,ugm-3,34,R,ugm-3,42,R,ugm-3,30,R,ugm-3
04-01-1997,16:00,5,R,ugm-3,40,R,ugm-3,48,R,ugm-3,28,R,ugm-3
04-01-1997,17:00,4,R,ugm-3,36,R,ugm-3,42,R,ugm-3,34,R,ugm-3
04-01-1997,18:00,4,R,ugm-3,34,R,ugm-3,40,R,ugm-3,36,R,ugm-3
04-01-1997,19:00,4,R,ugm-3,32,R,ugm-3,38,R,ugm-3,34,R,ugm-3
04-01-1997,20:00,3,R,ugm-3,32,R,ugm-3,36,R,ugm-3,38,R,ugm-3
04-01-1997,21:00,3,R,ugm-3,34,R,ugm-3,38,R,ugm-3,34,R,ugm-3
04-01-1997,22:00,3,R,ugm-3,34,R,ugm-3,38,R,ugm-3,32,R,ugm-3
04-01-1997,23:00,1,R,ugm-3,31,R,ugm-3,32,R,ugm-3,34,R,ugm-3
04-01-1997,24:00,1,R,ugm-3,23,R,ugm-3,25,R,ugm-3,40,R,ugm-3
05-01-1997,01:00,1,R,ugm-3,25,R,ugm-3,27,R,ugm-3,40,R,ugm-3
05-01-1997,02:00,1,R,ugm-3,17,R,ugm-3,19,R,ugm-3,50,R,ugm-3
05-01-1997,03:00,0,R,ugm-3,11,R,ugm-3,11,R,ugm-3,56,R,ugm-3
05-01-1997,04:00,0,R,ugm-3,10,R,ugm-3,10,R,ugm-3,58,R,ugm-3
05-01-1997,05:00,0,R,ugm-3,11,R,ugm-3,11,R,ugm-3,58,R,ugm-3
05-01-1997,06:00,0,R,ugm-3,13,R,ugm-3,13,R,ugm-3,56,R,ugm-3
05-01-1997,07:00,1,R,ugm-3,17,R,ugm-3,19,R,ugm-3,50,R,ugm-3
05-01-1997,08:00,1,R,ugm-3,25,R,ugm-3,27,R,ugm-3,42,R,ugm-3
05-01-1997,09:00,3,R,ugm-3,31,R,ugm-3,34,R,ugm-3,34,R,ugm-3
05-01-1997,10:00,5,R,ugm-3,29,R,ugm-3,36,R,ugm-3,34,R,ugm-3
05-01-1997,11:00,6,R,ugm-3,27,R,ugm-3,36,R,ugm-3,38,R,ugm-3
05-01-1997,12:00,8,R,ugm-3,32,R,ugm-3,44,R,ugm-3,36,R,ugm-3
05-01-1997,13:00,8,R,ugm-3,29,R,ugm-3,40,R,ugm-3,38,R,ugm-3
05-01-1997,14:00,6,R,ugm-3,25,R,ugm-3,34,R,ugm-3,42,R,ugm-3
05-01-1997,15:00,6,R,ugm-3,25,R,ugm-3,34,R,ugm-3,42,R,ugm-3
05-01-1997,16:00,6,R,ugm-3,34,R,ugm-3,44,R,ugm-3,36,R,ugm-3
05-01-1997,17:00,4,R,ugm-3,36,R,ugm-3,42,R,ugm-3,32,R,ugm-3
05-01-1997,18:00,4,R,ugm-3,31,R,ugm-3,36,R,ugm-3,40,R,ugm-3
05-01-1997,19:00,3,R,ugm-3,32,R,ugm-3,36,R,ugm-3,40,R,ugm-3
05-01-1997,20:00,4,R,ugm-3,32,R,ugm-3,38,R,ugm-3,38,R,ugm-3
05-01-1997,21:00,4,R,ugm-3,29,R,ugm-3,34,R,ugm-3,42,R,ugm-3
05-01-1997,22:00,4,R,ugm-3,29,R,ugm-3,34,R,ugm-3,42,R,ugm-3
05-01-1997,23:00,1,R,ugm-3,29,R,ugm-3,31,R,ugm-3,42,R,ugm-3
05-01-1997,24:00,4,R,ugm-3,34,R,ugm-3,40,R,ugm-3,32,R,ugm-3
06-01-1997,01:00,4,R,ugm-3,42,R,ugm-3,48,R,ugm-3,18,R,ugm-3
06-01-1997,02:00,3,R,ugm-3,40,R,ugm-3,44,R,ugm-3,18,R,ugm-3
06-01-1997,03:00,4,R,ugm-3,46,R,ugm-3,52,R,ugm-3,8,R,ugm-3
06-01-1997,04:00,4,R,ugm-3,42,R,ugm-3,48,R,ugm-3,12,R,ugm-3
06-01-1997,05:00,4,R,ugm-3,32,R,ugm-3,38,R,ugm-3,24,R,ugm-3
06-01-1997,06:00,4,R,ugm-3,34,R,ugm-3,40,R,ugm-3,24,R,ugm-3
06-01-1997,07:00,14,R,ugm-3,48,R,ugm-3,69,R,ugm-3,10,R,ugm-3
06-01-1997,08:00,39,R,ugm-3,55,R,ugm-3,115,R,ugm-3,2,R,ugm-3
06-01-1997,09:00,39,R,ugm-3,55,R,ugm-3,115,R,ugm-3,2,R,ugm-3
06-01-1997,10:00,33,R,ugm-3,53,R,ugm-3,103,R,ugm-3,4,R,ugm-3
06-01-1997,11:00,30,R,ugm-3,52,R,ugm-3,97,R,ugm-3,8,R,ugm-3
06-01-1997,12:00,40,R,ugm-3,50,R,ugm-3,111,R,ugm-3,10,R,ugm-3
06-01-1997,13:00,60,R,ugm-3,53,R,ugm-3,145,R,ugm-3,6,R,ugm-3
06-01-1997,14:00,84,R,ugm-3,53,R,ugm-3,181,R,ugm-3,4,R,ugm-3
06-01-1997,15:00,83,R,ugm-3,55,R,ugm-3,181,R,ugm-3,2,R,ugm-3
06-01-1997,16:00,94,R,ugm-3,52,R,ugm-3,195,R,ugm-3,2,R,ugm-3
06-01-1997,17:00,75,R,ugm-3,55,R,ugm-3,170,R,ugm-3,0,R,ugm-3
06-01-1997,18:00,108,R,ugm-3,48,R,ugm-3,212,R,ugm-3,0,R,ugm-3
06-01-1997,19:00,89,R,ugm-3,48,R,ugm-3,183,R,ugm-3,0,R,ugm-3
06-01-1997,20:00,63,R,ugm-3,52,R,ugm-3,147,R,ugm-3,0,R,ugm-3
06-01-1997,21:00,41,R,ugm-3,57,R,ugm-3,120,R,ugm-3,2,R,ugm-3
06-01-1997,22:00,30,R,ugm-3,55,R,ugm-3,101,R,ugm-3,2,R,ugm-3
06-01-1997,23:00,16,R,ugm-3,55,R,ugm-3,80,R,ugm-3,4,R,ugm-3
06-01-1997,24:00,14,R,ugm-3,52,R,ugm-3,73,R,ugm-3,4,R,ugm-3
07-01-1997,01:00,3,R,ugm-3,21,R,ugm-3,25,R,ugm-3,34,R,ugm-3
07-01-1997,02:00,3,R,ugm-3,25,R,ugm-3,29,R,ugm-3,28,R,ugm-3
07-01-1997,03:00,3,R,ugm-3,46,R,ugm-3,50,R,ugm-3,12,R,ugm-3
07-01-1997,04:00,4,R,ugm-3,38,R,ugm-3,44,R,ugm-3,16,R,ugm-3
07-01-1997,05:00,3,R,ugm-3,46,R,ugm-3,50,R,ugm-3,12,R,ugm-3
07-01-1997,06:00,4,R,ugm-3,48,R,ugm-3,53,R,ugm-3,10,R,ugm-3
07-01-1997,07:00,5,R,ugm-3,40,R,ugm-3,48,R,ugm-3,18,R,ugm-3
07-01-1997,08:00,13,R,ugm-3,53,R,ugm-3,73,R,ugm-3,8,R,ugm-3
07-01-1997,09:00,18,R,ugm-3,46,R,ugm-3,73,R,ugm-3,12,R,ugm-3
07-01-1997,10:00,16,R,ugm-3,42,R,ugm-3,67,R,ugm-3,20,R,ugm-3
07-01-1997,11:00,8,R,ugm-3,34,R,ugm-3,46,R,ugm-3,26,R,ugm-3
07-01-1997,12:00,11,R,ugm-3,40,R,ugm-3,57,R,ugm-3,22,R,ugm-3
07-01-1997,13:00,28,R,ugm-3,50,R,ugm-3,92,R,ugm-3,6,R,ugm-3
07-01-1997,14:00,28,R,ugm-3,46,R,ugm-3,88,R,ugm-3,8,R,ugm-3
07-01-1997,15:00,15,R,ugm-3,42,R,ugm-3,65,R,ugm-3,12,R,ugm-3
07-01-1997,16:00,18,R,ugm-3,50,R,ugm-3,76,R,ugm-3,8,R,ugm-3
07-01-1997,17:00,26,R,ugm-3,50,R,ugm-3,90,R,ugm-3,2,R,ugm-3
07-01-1997,18:00,50,R,ugm-3,46,R,ugm-3,122,R,ugm-3,0,R,ugm-3
07-01-1997,19:00,60,R,ugm-3,42,R,ugm-3,134,R,ugm-3,0,R,ugm-3
07-01-1997,20:00,48,R,ugm-3,42,R,ugm-3,115,R,ugm-3,0,R,ugm-3
07-01-1997,21:00,24,R,ugm-3,42,R,ugm-3,78,R,ugm-3,2,R,ugm-3
07-01-1997,22:00,19,R,ugm-3,38,R,ugm-3,67,R,ugm-3,6,R,ugm-3
07-01-1997,23:00,10,R,ugm-3,36,R,ugm-3,52,R,ugm-3,16,R,ugm-3
07-01-1997,24:00,10,R,ugm-3,34,R,ugm-3,50,R,ugm-3,16,R,ugm-3
08-01-1997,01:00,5,R,ugm-3,38,R,ugm-3,46,R,ugm-3,16,R,ugm-3
08-01-1997,02:00,4,R,ugm-3,36,R,ugm-3,42,R,ugm-3,16,R,ugm-3
08-01-1997,03:00,1,R,ugm-3,36,R,ugm-3,38,R,ugm-3,20,R,ugm-3
08-01-1997,04:00,6,R,ugm-3,44,R,ugm-3,53,R,ugm-3,10,R,ugm-3
08-01-1997,05:00,8,R,ugm-3,48,R,ugm-3,59,R,ugm-3,2,R,ugm-3
08-01-1997,06:00,8,R,ugm-3,48,R,ugm-3,59,R,ugm-3,4,R,ugm-3
08-01-1997,07:00,15,R,ugm-3,52,R,ugm-3,74,R,ugm-3,2,R,ugm-3
08-01-1997,08:00,31,R,ugm-3,53,R,ugm-3,101,R,ugm-3,0,R,ugm-3
08-01-1997,09:00,21,R,ugm-3,50,R,ugm-3,82,R,ugm-3,6,R,ugm-3
08-01-1997,10:00,19,R,ugm-3,50,R,ugm-3,78,R,ugm-3,8,R,ugm-3
08-01-1997,11:00,20,R,ugm-3,48,R,ugm-3,78,R,ugm-3,8,R,ugm-3
08-01-1997,12:00,26,R,ugm-3,48,R,ugm-3,88,R,ugm-3,8,R,ugm-3
08-01-1997,13:00,24,R,ugm-3,50,R,ugm-3,86,R,ugm-3,6,R,ugm-3
08-01-1997,14:00,33,R,ugm-3,55,R,ugm-3,105,R,ugm-3,2,R,ugm-3
08-01-1997,15:00,33,R,ugm-3,55,R,ugm-3,105,R,ugm-3,2,R,ugm-3
08-01-1997,16:00,28,R,ugm-3,57,R,ugm-3,99,R,ugm-3,2,R,ugm-3
08-01-1997,17:00,40,R,ugm-3,59,R,ugm-3,120,R,ugm-3,0,R,ugm-3
08-01-1997,18:00,31,R,ugm-3,59,R,ugm-3,107,R,ugm-3,0,R,ugm-3
08-01-1997,19:00,24,R,ugm-3,59,R,ugm-3,96,R,ugm-3,0,R,ugm-3
08-01-1997,20:00,18,R,ugm-3,59,R,ugm-3,86,R,ugm-3,2,R,ugm-3
08-01-1997,21:00,15,R,ugm-3,59,R,ugm-3,82,R,ugm-3,2,R,ugm-3
08-01-1997,22:00,19,R,ugm-3,59,R,ugm-3,88,R,ugm-3,0,R,ugm-3
08-01-1997,23:00,49,R,ugm-3,55,R,ugm-3,130,R,ugm-3,0,R,ugm-3
08-01-1997,24:00,33,R,ugm-3,57,R,ugm-3,107,R,ugm-3,0,R,ugm-3
09-01-1997,01:00,48,R,ugm-3,55,R,ugm-3,128,R,ugm-3,0,R,ugm-3
09-01-1997,02:00,34,R,ugm-3,53,R,ugm-3,105,R,ugm-3,0,R,ugm-3
09-01-1997,03:00,33,R,ugm-3,50,R,ugm-3,99,R,ugm-3,0,R,ugm-3
09-01-1997,04:00,35,R,ugm-3,52,R,ugm-3,105,R,ugm-3,0,R,ugm-3
09-01-1997,05:00,28,R,ugm-3,55,R,ugm-3,97,R,ugm-3,0,R,ugm-3
09-01-1997,06:00,31,R,ugm-3,53,R,ugm-3,101,R,ugm-3,0,R,ugm-3
09-01-1997,07:00,46,R,ugm-3,52,R,ugm-3,122,R,ugm-3,0,R,ugm-3
09-01-1997,08:00,76,R,ugm-3,50,R,ugm-3,166,R,ugm-3,0,R,ugm-3
09-01-1997,09:00,113,R,ugm-3,48,R,ugm-3,220,R,ugm-3,0,R,ugm-3
09-01-1997,10:00,139,R,ugm-3,48,R,ugm-3,260,R,ugm-3,0,R,ugm-3
09-01-1997,11:00,135,R,ugm-3,50,R,ugm-3,256,R,ugm-3,0,R,ugm-3
09-01-1997,12:00,154,R,ugm-3,48,R,ugm-3,283,R,ugm-3,2,R,ugm-3
09-01-1997,13:00,118,R,ugm-3,48,R,ugm-3,227,R,ugm-3,0,R,ugm-3
09-01-1997,14:00,73,R,ugm-3,46,R,ugm-3,157,R,ugm-3,0,R,ugm-3
09-01-1997,15:00,78,R,ugm-3,46,R,ugm-3,164,R,ugm-3,0,R,ugm-3
09-01-1997,16:00,64,R,ugm-3,50,R,ugm-3,147,R,ugm-3,0,R,ugm-3
09-01-1997,17:00,30,R,ugm-3,61,R,ugm-3,107,R,ugm-3,2,R,ugm-3
09-01-1997,18:00,20,R,ugm-3,59,R,ugm-3,90,R,ugm-3,4,R,ugm-3
09-01-1997,19:00,20,R,ugm-3,61,R,ugm-3,92,R,ugm-3,2,R,ugm-3
09-01-1997,20:00,15,R,ugm-3,59,R,ugm-3,82,R,ugm-3,4,R,ugm-3
09-01-1997,21:00,10,R,ugm-3,48,R,ugm-3,63,R,ugm-3,12,R,ugm-3
09-01-1997,22:00,6,R,ugm-3,40,R,ugm-3,50,R,ugm-3,20,R,ugm-3
09-01-1997,23:00,5,R,ugm-3,36,R,ugm-3,44,R,ugm-3,24,R,ugm-3
09-01-1997,24:00,5,R,ugm-3,31,R,ugm-3,38,R,ugm-3,26,R,ugm-3
10-01-1997,01:00,4,R,ugm-3,19,R,ugm-3,25,R,ugm-3,38,R,ugm-3
10-01-1997,02:00,3,R,ugm-3,13,R,ugm-3,17,R,ugm-3,44,R,ugm-3
10-01-1997,03:00,1,R,ugm-3,23,R,ugm-3,25,R,ugm-3,36,R,ugm-3
10-01-1997,04:00,3,R,ugm-3,21,R,ugm-3,25,R,ugm-3,34,R,ugm-3
10-01-1997,05:00,4,R,ugm-3,23,R,ugm-3,29,R,ugm-3,32,R,ugm-3
10-01-1997,06:00,4,R,ugm-3,31,R,ugm-3,36,R,ugm-3,24,R,ugm-3
10-01-1997,07:00,5,R,ugm-3,36,R,ugm-3,44,R,ugm-3,20,R,ugm-3
10-01-1997,08:00,11,R,ugm-3,44,R,ugm-3,61,R,ugm-3,12,R,ugm-3
10-01-1997,09:00,18,R,ugm-3,48,R,ugm-3,74,R,ugm-3,8,R,ugm-3
10-01-1997,10:00,24,R,ugm-3,48,R,ugm-3,84,R,ugm-3,10,R,ugm-3
10-01-1997,11:00,49,R,ugm-3,46,R,ugm-3,120,R,ugm-3,4,R,ugm-3
10-01-1997,12:00,63,R,ugm-3,46,R,ugm-3,141,R,ugm-3,4,R,ugm-3
10-01-1997,13:00,44,R,ugm-3,42,R,ugm-3,109,R,ugm-3,6,R,ugm-3
10-01-1997,14:00,39,R,ugm-3,44,R,ugm-3,103,R,ugm-3,4,R,ugm-3
10-01-1997,15:00,33,R,ugm-3,40,R,ugm-3,90,R,ugm-3,4,R,ugm-3
10-01-1997,16:00,46,R,ugm-3,46,R,ugm-3,117,R,ugm-3,0,R,ugm-3
10-01-1997,17:00,75,R,ugm-3,46,R,ugm-3,160,R,ugm-3,0,R,ugm-3
10-01-1997,18:00,60,R,ugm-3,44,R,ugm-3,136,R,ugm-3,0,R,ugm-3
10-01-1997,19:00,58,R,ugm-3,44,R,ugm-3,132,R,ugm-3,0,R,ugm-3
10-01-1997,20:00,58,R,ugm-3,42,R,ugm-3,130,R,ugm-3,0,R,ugm-3
10-01-1997,21:00,61,R,ugm-3,42,R,ugm-3,136,R,ugm-3,0,R,ugm-3
10-01-1997,22:00,44,R,ugm-3,40,R,ugm-3,107,R,ugm-3,0,R,ugm-3
10-01-1997,23:00,28,R,ugm-3,38,R,ugm-3,80,R,ugm-3,0,R,ugm-3
10-01-1997,24:00,21,R,ugm-3,40,R,ugm-3,73,R,ugm-3,0,R,ugm-3
11-01-1997,01:00,19,R,ugm-3,46,R,ugm-3,74,R,ugm-3,0,R,ugm-3
11-01-1997,02:00,23,R,ugm-3,48,R,ugm-3,82,R,ugm-3,0,R,ugm-3
11-01-1997,03:00,26,R,ugm-3,50,R,ugm-3,90,R,ugm-3,0,R,ugm-3
11-01-1997,04:00,29,R,ugm-3,52,R,ugm-3,96,R,ugm-3,0,R,ugm-3
11-01-1997,05:00,29,R,ugm-3,52,R,ugm-3,96,R,ugm-3,0,R,ugm-3
11-01-1997,06:00,33,R,ugm-3,53,R,ugm-3,103,R,ugm-3,0,R,ugm-3
11-01-1997,07:00,53,R,ugm-3,63,R,ugm-3,143,R,ugm-3,0,R,ugm-3
11-01-1997,08:00,80,R,ugm-3,67,R,ugm-3,189,R,ugm-3,0,R,ugm-3
11-01-1997,09:00,86,R,ugm-3,69,R,ugm-3,201,R,ugm-3,0,R,ugm-3
11-01-1997,10:00,84,R,ugm-3,65,R,ugm-3,193,R,ugm-3,0,R,ugm-3
11-01-1997,11:00,94,R,ugm-3,61,R,ugm-3,204,R,ugm-3,0,R,ugm-3
11-01-1997,12:00,95,R,ugm-3,63,R,ugm-3,208,R,ugm-3,2,R,ugm-3
11-01-1997,13:00,106,R,ugm-3,63,R,ugm-3,225,R,ugm-3,2,R,ugm-3
11-01-1997,14:00,85,R,ugm-3,59,R,ugm-3,189,R,ugm-3,0,R,ugm-3
11-01-1997,15:00,64,R,ugm-3,57,R,ugm-3,155,R,ugm-3,0,R,ugm-3
11-01-1997,16:00,56,R,ugm-3,53,R,ugm-3,139,R,ugm-3,0,R,ugm-3
11-01-1997,17:00,68,R,ugm-3,50,R,ugm-3,153,R,ugm-3,0,R,ugm-3
11-01-1997,18:00,75,R,ugm-3,46,R,ugm-3,160,R,ugm-3,0,R,ugm-3
11-01-1997,19:00,73,R,ugm-3,42,R,ugm-3,153,R,ugm-3,0,R,ugm-3
11-01-1997,20:00,70,R,ugm-3,40,R,ugm-3,147,R,ugm-3,0,R,ugm-3
11-01-1997,21:00,53,R,ugm-3,40,R,ugm-3,120,R,ugm-3,0,R,ugm-3
11-01-1997,22:00,41,R,ugm-3,38,R,ugm-3,101,R,ugm-3,0,R,ugm-3
11-01-1997,23:00,33,R,ugm-3,34,R,ugm-3,84,R,ugm-3,0,R,ugm-3
11-01-1997,24:00,34,R,ugm-3,32,R,ugm-3,84,R,ugm-3,0,R,ugm-3
12-01-1997,01:00,30,R,ugm-3,29,R,ugm-3,74,R,ugm-3,0,R,ugm-3
12-01-1997,02:00,28,R,ugm-3,29,R,ugm-3,71,R,ugm-3,0,R,ugm-3
12-01-1997,03:00,18,R,ugm-3,29,R,ugm-3,55,R,ugm-3,0,R,ugm-3
12-01-1997,04:00,14,R,ugm-3,25,R,ugm-3,46,R,ugm-3,0,R,ugm-3
12-01-1997,05:00,11,R,ugm-3,23,R,ugm-3,40,R,ugm-3,4,R,ugm-3
12-01-1997,06:00,11,R,ugm-3,23,R,ugm-3,40,R,ugm-3,4,R,ugm-3
12-01-1997,07:00,15,R,ugm-3,27,R,ugm-3,50,R,ugm-3,2,R,ugm-3
12-01-1997,08:00,19,R,ugm-3,29,R,ugm-3,57,R,ugm-3,2,R,ugm-3
12-01-1997,09:00,29,R,ugm-3,31,R,ugm-3,74,R,ugm-3,2,R,ugm-3
12-01-1997,10:00,30,R,ugm-3,29,R,ugm-3,74,R,ugm-3,6,R,ugm-3
12-01-1997,11:00,30,R,ugm-3,29,R,ugm-3,74,R,ugm-3,10,R,ugm-3
12-01-1997,12:00,30,R,ugm-3,27,R,ugm-3,73,R,ugm-3,12,R,ugm-3
12-01-1997,13:00,25,R,ugm-3,27,R,ugm-3,65,R,ugm-3,14,R,ugm-3
12-01-1997,14:00,28,R,ugm-3,31,R,ugm-3,73,R,ugm-3,12,R,ugm-3
12-01-1997,15:00,28,R,ugm-3,34,R,ugm-3,76,R,ugm-3,12,R,ugm-3
12-01-1997,16:00,23,R,ugm-3,32,R,ugm-3,67,R,ugm-3,10,R,ugm-3
12-01-1997,17:00,25,R,ugm-3,34,R,ugm-3,73,R,ugm-3,6,R,ugm-3
12-01-1997,18:00,18,R,ugm-3,32,R,ugm-3,59,R,ugm-3,16,R,ugm-3
12-01-1997,19:00,20,R,ugm-3,34,R,ugm-3,65,R,ugm-3,14,R,ugm-3
12-01-1997,20:00,19,R,ugm-3,34,R,ugm-3,63,R,ugm-3,10,R,ugm-3
12-01-1997,21:00,15,R,ugm-3,29,R,ugm-3,52,R,ugm-3,16,R,ugm-3
12-01-1997,22:00,14,R,ugm-3,29,R,ugm-3,50,R,ugm-3,12,R,ugm-3
12-01-1997,23:00,18,R,ugm-3,34,R,ugm-3,61,R,ugm-3,4,R,ugm-3
12-01-1997,24:00,11,R,ugm-3,27,R,ugm-3,44,R,ugm-3,10,R,ugm-3
13-01-1997,01:00,6,R,ugm-3,21,R,ugm-3,31,R,ugm-3,12,R,ugm-3
13-01-1997,02:00,5,R,ugm-3,21,R,ugm-3,29,R,ugm-3,10,R,ugm-3
13-01-1997,03:00,5,R,ugm-3,13,R,ugm-3,21,R,ugm-3,28,R,ugm-3
13-01-1997,04:00,4,R,ugm-3,11,R,ugm-3,17,R,ugm-3,32,R,ugm-3
13-01-1997,05:00,4,R,ugm-3,11,R,ugm-3,17,R,ugm-3,36,R,ugm-3
13-01-1997,06:00,8,R,ugm-3,25,R,ugm-3,36,R,ugm-3,28,R,ugm-3
13-01-1997,07:00,38,R,ugm-3,52,R,ugm-3,109,R,ugm-3,18,R,ugm-3
13-01-1997,08:00,38,R,ugm-3,48,R,ugm-3,105,R,ugm-3,6,R,ugm-3
13-01-1997,09:00,58,R,ugm-3,52,R,ugm-3,139,R,ugm-3,2,R,ugm-3
13-01-1997,10:00,66,R,ugm-3,52,R,ugm-3,153,R,ugm-3,4,R,ugm-3
13-01-1997,11:00,59,R,ugm-3,55,R,ugm-3,145,R,ugm-3,6,R,ugm-3
13-01-1997,12:00,71,R,ugm-3,67,R,ugm-3,176,R,ugm-3,6,R,ugm-3
13-01-1997,13:00,53,R,ugm-3,61,R,ugm-3,141,R,ugm-3,14,R,ugm-3
13-01-1997,14:00,41,R,ugm-3,61,R,ugm-3,124,R,ugm-3,18,R,ugm-3
13-01-1997,15:00,30,R,ugm-3,57,R,ugm-3,103,R,ugm-3,20,R,ugm-3
13-01-1997,16:00,58,R,ugm-3,71,R,ugm-3,159,R,ugm-3,10,R,ugm-3
13-01-1997,17:00,240,R,ugm-3,80,R,ugm-3,447,R,ugm-3,2,R,ugm-3
13-01-1997,18:00,485,R,ugm-3,78,R,ugm-3,819,R,ugm-3,4,R,ugm-3
13-01-1997,19:00,640,R,ugm-3,80,R,ugm-3,1058,R,ugm-3,6,R,ugm-3
13-01-1997,20:00,556,R,ugm-3,78,R,ugm-3,928,R,ugm-3,2,R,ugm-3
13-01-1997,21:00,114,R,ugm-3,73,R,ugm-3,246,R,ugm-3,0,R,ugm-3
13-01-1997,22:00,81,R,ugm-3,73,R,ugm-3,197,R,ugm-3,0,R,ugm-3
13-01-1997,23:00,70,R,ugm-3,73,R,ugm-3,180,R,ugm-3,0,R,ugm-3
13-01-1997,24:00,38,R,ugm-3,71,R,ugm-3,128,R,ugm-3,0,R,ugm-3
14-01-1997,01:00,30,R,ugm-3,65,R,ugm-3,111,R,ugm-3,0,R,ugm-3
14-01-1997,02:00,16,R,ugm-3,59,R,ugm-3,84,R,ugm-3,0,R,ugm-3
14-01-1997,03:00,13,R,ugm-3,59,R,ugm-3,78,R,ugm-3,0,R,ugm-3
14-01-1997,04:00,11,R,ugm-3,55,R,ugm-3,73,R,ugm-3,0,R,ugm-3
14-01-1997,05:00,20,R,ugm-3,57,R,ugm-3,88,R,ugm-3,0,R,ugm-3
14-01-1997,06:00,55,R,ugm-3,59,R,ugm-3,143,R,ugm-3,0,R,ugm-3
14-01-1997,07:00,166,R,ugm-3,61,R,ugm-3,315,R,ugm-3,0,R,ugm-3
14-01-1997,08:00,361,R,ugm-3,80,R,ugm-3,632,R,ugm-3,2,R,ugm-3
14-01-1997,09:00,523,R,ugm-3,88,R,ugm-3,886,R,ugm-3,4,R,ugm-3
14-01-1997,10:00,119,R,ugm-3,63,R,ugm-3,244,R,ugm-3,0,R,ugm-3
14-01-1997,11:00,78,R,ugm-3,61,R,ugm-3,180,R,ugm-3,4,R,ugm-3
14-01-1997,12:00,59,R,ugm-3,61,R,ugm-3,151,R,ugm-3,6,R,ugm-3
14-01-1997,13:00,50,R,ugm-3,59,R,ugm-3,136,R,ugm-3,8,R,ugm-3
14-01-1997,14:00,60,R,ugm-3,67,R,ugm-3,159,R,ugm-3,6,R,ugm-3
14-01-1997,15:00,64,R,ugm-3,69,R,ugm-3,166,R,ugm-3,4,R,ugm-3
14-01-1997,16:00,65,R,ugm-3,69,R,ugm-3,168,R,ugm-3,2,R,ugm-3
14-01-1997,17:00,258,R,ugm-3,76,R,ugm-3,470,R,ugm-3,2,R,ugm-3
14-01-1997,18:00,511,R,ugm-3,82,R,ugm-3,863,R,ugm-3,4,R,ugm-3
14-01-1997,19:00,709,R,ugm-3,84,R,ugm-3,1167,R,ugm-3,4,R,ugm-3
14-01-1997,20:00,973,R,ugm-3,96,R,ugm-3,1581,R,ugm-3,6,R,ugm-3
14-01-1997,21:00,700,R,ugm-3,78,R,ugm-3,1148,R,ugm-3,4,R,ugm-3
14-01-1997,22:00,499,R,ugm-3,73,R,ugm-3,835,R,ugm-3,2,R,ugm-3
14-01-1997,23:00,305,R,ugm-3,73,R,ugm-3,539,R,ugm-3,0,R,ugm-3
14-01-1997,24:00,536,R,ugm-3,71,R,ugm-3,890,R,ugm-3,2,R,ugm-3
15-01-1997,01:00,410,R,ugm-3,78,R,ugm-3,705,R,ugm-3,2,R,ugm-3
15-01-1997,02:00,346,R,ugm-3,73,R,ugm-3,602,R,ugm-3,2,R,ugm-3
15-01-1997,03:00,285,R,ugm-3,55,R,ugm-3,491,R,ugm-3,2,R,ugm-3
15-01-1997,04:00,149,R,ugm-3,46,R,ugm-3,273,R,ugm-3,2,R,ugm-3
15-01-1997,05:00,155,R,ugm-3,38,R,ugm-3,275,R,ugm-3,2,R,ugm-3
15-01-1997,06:00,149,R,ugm-3,32,R,ugm-3,260,R,ugm-3,2,R,ugm-3
15-01-1997,07:00,253,R,ugm-3,48,R,ugm-3,434,R,ugm-3,2,R,ugm-3
15-01-1997,08:00,590,R,ugm-3,82,R,ugm-3,984,R,ugm-3,6,R,ugm-3
15-01-1997,09:00,153,R,ugm-3,55,R,ugm-3,288,R,ugm-3,0,R,ugm-3
15-01-1997,10:00,103,R,ugm-3,50,R,ugm-3,206,R,ugm-3,2,R,ugm-3
15-01-1997,11:00,185,R,ugm-3,67,R,ugm-3,350,R,ugm-3,2,R,ugm-3
15-01-1997,12:00,249,R,ugm-3,92,R,ugm-3,472,R,ugm-3,2,R,ugm-3
15-01-1997,13:00,148,R,ugm-3,80,R,ugm-3,306,R,ugm-3,4,R,ugm-3
15-01-1997,14:00,63,R,ugm-3,61,R,ugm-3,157,R,ugm-3,6,R,ugm-3
15-01-1997,15:00,,,,,,,,,,,,
15-01-1997,16:00,,,,,,,,,,,,
15-01-1997,17:00,298,R,ugm-3,78,R,ugm-3,533,R,ugm-3,6,R,ugm-3
15-01-1997,18:00,603,R,ugm-3,143,R,ugm-3,1064,R,ugm-3,8,R,ugm-3
15-01-1997,19:00,676,R,ugm-3,176,R,ugm-3,1209,R,ugm-3,6,R,ugm-3
15-01-1997,20:00,670,R,ugm-3,193,R,ugm-3,1217,R,ugm-3,6,R,ugm-3
15-01-1997,21:00,753,R,ugm-3,204,R,ugm-3,1354,R,ugm-3,6,R,ugm-3
15-01-1997,22:00,786,R,ugm-3,206,R,ugm-3,1408,R,ugm-3,6,R,ugm-3
15-01-1997,23:00,861,R,ugm-3,197,R,ugm-3,1513,R,ugm-3,4,R,ugm-3
15-01-1997,24:00,905,R,ugm-3,189,R,ugm-3,1572,R,ugm-3,4,R,ugm-3
16-01-1997,01:00,923,R,ugm-3,191,R,ugm-3,1601,R,ugm-3,4,R,ugm-3
16-01-1997,02:00,825,R,ugm-3,180,R,ugm-3,1440,R,ugm-3,4,R,ugm-3
16-01-1997,03:00,788,R,ugm-3,172,R,ugm-3,1375,R,ugm-3,4,R,ugm-3
16-01-1997,04:00,495,R,ugm-3,126,R,ugm-3,882,R,ugm-3,2,R,ugm-3
16-01-1997,05:00,55,R,ugm-3,63,R,ugm-3,147,R,ugm-3,0,R,ugm-3
16-01-1997,06:00,200,R,ugm-3,53,R,ugm-3,359,R,ugm-3,2,R,ugm-3
16-01-1997,07:00,346,R,ugm-3,65,R,ugm-3,594,R,ugm-3,2,R,ugm-3
16-01-1997,08:00,626,R,ugm-3,109,R,ugm-3,1066,R,ugm-3,4,R,ugm-3
16-01-1997,09:00,763,R,ugm-3,132,R,ugm-3,1297,R,ugm-3,6,R,ugm-3
16-01-1997,10:00,978,R,ugm-3,197,R,ugm-3,1690,R,ugm-3,4,R,ugm-3
16-01-1997,11:00,461,R,ugm-3,170,R,ugm-3,875,R,ugm-3,2,R,ugm-3
16-01-1997,12:00,90,R,ugm-3,92,R,ugm-3,229,R,ugm-3,4,R,ugm-3
16-01-1997,13:00,56,R,ugm-3,80,R,ugm-3,166,R,ugm-3,10,R,ugm-3
16-01-1997,14:00,70,R,ugm-3,80,R,ugm-3,187,R,ugm-3,8,R,ugm-3
16-01-1997,15:00,54,R,ugm-3,69,R,ugm-3,151,R,ugm-3,6,R,ugm-3
16-01-1997,16:00,75,R,ugm-3,71,R,ugm-3,185,R,ugm-3,4,R,ugm-3
16-01-1997,17:00,96,R,ugm-3,73,R,ugm-3,220,R,ugm-3,2,R,ugm-3
16-01-1997,18:00,85,R,ugm-3,80,R,ugm-3,210,R,ugm-3,2,R,ugm-3
16-01-1997,19:00,68,R,ugm-3,78,R,ugm-3,181,R,ugm-3,2,R,ugm-3
16-01-1997,20:00,30,R,ugm-3,69,R,ugm-3,115,R,ugm-3,4,R,ugm-3
16-01-1997,21:00,39,R,ugm-3,65,R,ugm-3,124,R,ugm-3,2,R,ugm-3
16-01-1997,22:00,24,R,ugm-3,55,R,ugm-3,92,R,ugm-3,4,R,ugm-3
16-01-1997,23:00,24,R,ugm-3,52,R,ugm-3,88,R,ugm-3,4,R,ugm-3
16-01-1997,24:00,24,R,ugm-3,44,R,ugm-3,80,R,ugm-3,4,R,ugm-3
17-01-1997,01:00,10,R,ugm-3,27,R,ugm-3,42,R,ugm-3,12,R,ugm-3
17-01-1997,02:00,9,R,ugm-3,23,R,ugm-3,36,R,ugm-3,18,R,ugm-3
17-01-1997,03:00,8,R,ugm-3,29,R,ugm-3,40,R,ugm-3,14,R,ugm-3
17-01-1997,04:00,6,R,ugm-3,34,R,ugm-3,44,R,ugm-3,14,R,ugm-3
17-01-1997,05:00,8,R,ugm-3,46,R,ugm-3,57,R,ugm-3,10,R,ugm-3
17-01-1997,06:00,8,R,ugm-3,50,R,ugm-3,61,R,ugm-3,10,R,ugm-3
17-01-1997,07:00,16,R,ugm-3,48,R,ugm-3,73,R,ugm-3,6,R,ugm-3
17-01-1997,08:00,24,R,ugm-3,46,R,ugm-3,82,R,ugm-3,6,R,ugm-3